sat.trackr.live / text

‹ back to catalog

STARLINK-4278

NORAD 53182 · 2022-083BC

PAYLOAD ACTIVE UNKNOWN

§ Identity

Operator
Country
US
Launch date
2022-07-17
Launch site
AFETR
Launch vehicle
Mass (kg)
RCS (m²)

Purposes: comms

External: N2YO · Heavens-Above · Gunter

§ Orbital elements

Epoch: 2026-09-20T00:00:02.998944Z

Period
93.85 min
Inclination
53.1586°
Eccentricity
0.0001159
Mean motion
15.34380814 rev/d
Perigee alt
462.0 km
Apogee alt
463.6 km
Semi-major
6,840.9 km
B*
1.0138e-3
RAAN
331.7400°
Arg perigee
86.7241°
Mean anomaly
102.1044°
Rev number
589

§ Raw data

STARLINK-42781 53182U 22083BC  26263.00003471  .00034011  00000+0  10138-2 0  99912 53182  53.1586 331.7400 0001159  86.7241 102.1044 15.34380814  5892

JSON: /api/v1/satellites/53182 · /tle

For live sub-satellite position, see the globe view (requires WebGL).

§ Visibility from observer

Set your observer location to see the next 7 days of passes ≥ 10°. The values pass through the URL so the page stays shareable.

No JS? Fill the form by hand. The geolocation button needs JavaScript.